Raleigh-Durham Airport, NC

6:34 AM EDT on May 25, 2017 (GMT -0400)
Raleigh-Durham International

Weather History for KRDU - September, 2014

Change the Weather History Date:

Saturday, September 6, 2014

  Actual Average Record
Temperature  
Mean Temperature 81 °F 75 °F  
Max Temperature 91 °F 85 °F 104 °F (1954)
Min Temperature 71 °F 65 °F 49 °F (1997)
Degree Days  
Heating Degree Days 0 0  
Month to date heating degree days 0 0  
Since 1 July heating degree days 0 1  
Cooling Degree Days 16 10  
Month to date cooling degree days 102 64  
Year to date cooling degree days 1460 1505  
Growing Degree Days 31 (Base 50)    
Moisture  
Dew Point 70 °F    
Average Humidity 74    
Maximum Humidity 93    
Minimum Humidity 55    
Precipitation  
Precipitation 0.00 in 0.16 in 4.96 in (1996)
Month to date precipitation 1.18 0.95  
Year to date precipitation 39.59 30.49  
Sea Level Pressure  
Sea Level Pressure 30.03 in    
Wind  
Wind Speed 6 mph (SSW)    
Max Wind Speed 13 mph    
Max Gust Speed 18 mph    
Visibility 10 miles    
Events      
T = Trace of Precipitation, MM = Missing Value Source: NWS Daily Summary

Daily Weather History Graph

Daily Weather History Graph

Search for Another Location

Airport or City:

Trip Planner

Search our weather history database for the weather conditions in past years. The results will help you decide how hot, cold, wet, or windy it might be!

Date:

Astronomy

Sep. 06, 2014 Rise Set
Actual Time 6:50 AM EDT 7:35 PM EDT
Civil Twilight 6:24 AM EDT 8:01 PM EDT
Nautical Twilight 5:54 AM EDT 8:31 PM EDT
Astronomical Twilight 5:22 AM EDT 9:03 PM EDT
Moon 5:47 PM EDT (9/6) 3:54 AM EDT (9/6)
Length of Visible Light 13h 36m
Length of Day
12h 44m
Waxing Gibbous, 91% of the Moon is Illuminated
Sep 6
Waxing Gibbous
Sep 8
Full
Sep 15
Last Quarter
Sep 24
New
Oct 1
First Quarter

Hourly Weather History & Observations

Time (EDT) Temp. Heat Index Dew Point Humidity Pressure Visibility Wind Dir Wind Speed Gust Speed Precip Events Conditions
12:51 AM 75.0 °F - 69.1 °F 82% 30.09 in 10.0 mi SW 5.8 mph - N/A   Scattered Clouds
1:51 AM 73.9 °F - 69.1 °F 85% 30.09 in 10.0 mi WSW 3.5 mph - N/A   Scattered Clouds
2:51 AM 73.9 °F - 69.1 °F 85% 30.08 in 10.0 mi SW 3.5 mph - N/A   Partly Cloudy
3:51 AM 73.0 °F - 69.1 °F 87% 30.07 in 10.0 mi SW 3.5 mph - N/A   Scattered Clouds
4:51 AM 71.6 °F - 69.8 °F 94% 30.09 in 10.0 mi Calm Calm - N/A   Scattered Clouds
5:51 AM 72.0 °F - 68.0 °F 87% 30.07 in 10.0 mi SW 3.5 mph - N/A   Partly Cloudy
6:51 AM 72.0 °F - 69.1 °F 91% 30.08 in 10.0 mi SW 3.5 mph - N/A   Scattered Clouds
7:51 AM 73.9 °F - 71.1 °F 91% 30.07 in 10.0 mi SW 4.6 mph - N/A   Scattered Clouds
8:14 AM 75.2 °F - 71.6 °F 89% 30.08 in 10.0 mi SW 5.8 mph - N/A   Scattered Clouds
8:51 AM 77.0 °F - 71.6 °F 83% 30.09 in 10.0 mi SSW 5.8 mph - N/A   Scattered Clouds
9:51 AM 81.0 °F 85.2 °F 72.0 °F 74% 30.08 in 10.0 mi WSW 9.2 mph - N/A   Mostly Cloudy
10:51 AM 84.2 °F 89.6 °F 71.6 °F 66% 30.08 in 10.0 mi SW 6.9 mph - N/A   Mostly Cloudy
11:51 AM 84.9 °F 90.1 °F 71.1 °F 63% 30.05 in 10.0 mi SW 8.1 mph - N/A   Mostly Cloudy
12:51 PM 87.1 °F 92.0 °F 70.0 °F 57% 30.04 in 10.0 mi SSW 9.2 mph - N/A   Scattered Clouds
1:51 PM 87.8 °F 92.6 °F 69.8 °F 55% 30.03 in 10.0 mi Variable 5.8 mph - N/A   Scattered Clouds
2:51 PM 86.0 °F 89.4 °F 68.0 °F 55% 29.99 in 10.0 mi Variable 4.6 mph - N/A   Scattered Clouds
3:51 PM 89.6 °F 96.2 °F 71.6 °F 55% 29.97 in 10.0 mi SSW 6.9 mph - N/A   Mostly Cloudy
5:51 PM 86.0 °F 90.7 °F 70.0 °F 59% 29.94 in 10.0 mi South 6.9 mph - N/A   Scattered Clouds
6:51 PM 84.9 °F 89.4 °F 70.0 °F 61% 29.94 in 10.0 mi South 5.8 mph - N/A   Scattered Clouds
7:51 PM 81.0 °F 84.9 °F 71.1 °F 72% 29.95 in 10.0 mi Calm Calm - N/A   Scattered Clouds
8:51 PM 80.1 °F 83.6 °F 71.1 °F 74% 29.97 in 10.0 mi SSE 3.5 mph - N/A   Scattered Clouds
9:51 PM 79.0 °F - 71.1 °F 77% 29.98 in 10.0 mi South 4.6 mph - N/A   Mostly Cloudy
11:51 PM 79.0 °F - 71.1 °F 77% 29.98 in 10.0 mi SW 9.2 mph - N/A   Overcast